Simultaneous Nadir Overpasses (SNOs) Predictions

Prediction of SNOs between METOP-C and LANDSAT-8 Satellite Orbit:

Table of predicted SNOs for the next 14.0 days since TLE Epoch: 12/5/2020
Index Date (METOP-C) Time (METOP-C) Lat,Lon (METOP-C) SZA (METOP-C ) Date (LANDSAT-8) Time (LANDSAT-8) Lat,Lon (LANDSAT-8) SZA (LANDSAT-8 ) Distance(km) Time Diff (sec)
1 12/06/2020 23:35:52 81.08,-134.86 105.77 12/06/2020 23:35:55 81.07,-134.84 105.77 0.52 3
2 12/07/2020 00:26:29 -81.12, 33.65 74.08 12/07/2020 00:25:20 -81.12, 33.47 74.13 2.99 69
3 12/09/2020 18:19:36 -81.05, 123.56 74.07 12/09/2020 18:20:45 -81.05, 123.61 74.04 0.92 69
4 12/09/2020 19:10:15 81.09, -68.19 106.06 12/09/2020 19:10:10 81.08, -68.34 106.03 2.82 5
5 12/12/2020 13:53:59 -81.06,-169.80 73.85 12/12/2020 13:55:00 -81.05,-169.92 73.84 2.26 61
6 12/12/2020 14:44:39 81.08, -1.93 106.23 12/12/2020 14:44:25 81.08, -1.90 106.22 0.61 14
7 12/15/2020 09:28:22 -81.07,-103.18 73.69 12/15/2020 09:29:14 -81.07,-103.14 73.66 0.99 52
8 12/15/2020 10:19:02 81.09, 64.69 106.38 12/15/2020 10:18:39 81.10, 64.86 106.40 3.16 23
9 12/18/2020 05:02:45 -81.06, -36.94 73.64 12/18/2020 05:03:28 -81.07, -36.76 73.60 3.24 43



Historial Predications of SNOs between METOP-C and LANDSAT-8
